Estación Meteorológica de la Universidad de Murcia
Estación Meteorológica de la Universidad de Murcia
Universidad de Murcia
 

Humedad relativaHumedad relativa

 

Máxima: 83,7 % a las 05:16:00 del día 18/09/2021
Mínima: 32,1 % a las 15:09:00 del día 18/09/2021

||Humedad máxima últimos meses|| ---- ||Humedad mínima últimos meses||


Humedad máxima

  • 1 - 83,7 % del día 18/09/2021
  • 2 - 86,5 % del día 17/09/2021
  • 3 - 86,5 % del día 16/09/2021
  • 4 - 79,3 % del día 15/09/2021
  • 5 - 86,5 % del día 14/09/2021
  • 6 - 86,5 % del día 13/09/2021
  • 7 - 86,5 % del día 12/09/2021
  • 8 - 86,5 % del día 11/09/2021
  • 9 - 84 % del día 10/09/2021
  • 10 - 86,5 % del día 09/09/2021
  • 11 - 86,5 % del día 08/09/2021
  • 12 - 86,5 % del día 07/09/2021
  • 13 - 86,5 % del día 06/09/2021
  • 14 - 86,5 % del día 05/09/2021
  • 15 - 86,5 % del día 04/09/2021
  • 16 - 86,5 % del día 03/09/2021
  • 17 - 86,5 % del día 02/09/2021
  • 18 - 86,5 % del día 01/09/2021
  • 19 - 86,5 % del día 31/08/2021
  • 20 - 86,5 % del día 30/08/2021
  • 21 - 86,5 % del día 29/08/2021
  • 22 - 86,5 % del día 28/08/2021
  • 23 - 86,5 % del día 27/08/2021
  • 24 - 86,5 % del día 26/08/2021
  • 25 - 86,5 % del día 25/08/2021
  • 26 - 86,5 % del día 24/08/2021
  • 27 - 81,1 % del día 23/08/2021
  • 28 - 86,5 % del día 22/08/2021
  • 29 - 86,5 % del día 21/08/2021
  • 30 - 86,5 % del día 20/08/2021
  • 31 - 86,5 % del día 19/08/2021
  • 32 - 86,5 % del día 18/08/2021
  • 33 - 86,5 % del día 17/08/2021
  • 34 - 86,5 % del día 16/08/2021
  • 35 - 86,5 % del día 15/08/2021
  • 36 - 85,8 % del día 14/08/2021
  • 37 - 84,9 % del día 13/08/2021
  • 38 - 81 % del día 12/08/2021
  • 39 - 79,3 % del día 11/08/2021
  • 40 - 86,5 % del día 10/08/2021
  • 41 - 86,5 % del día 09/08/2021
  • 42 - 86,5 % del día 08/08/2021
  • 43 - 86,5 % del día 07/08/2021
  • 44 - 86,5 % del día 06/08/2021
  • 45 - 86,5 % del día 05/08/2021
  • 46 - 86,5 % del día 04/08/2021
  • 47 - 86,5 % del día 03/08/2021
  • 48 - 86,5 % del día 02/08/2021
  • 49 - 84,9 % del día 01/08/2021
  • 50 - 86,5 % del día 31/07/2021
  • 51 - 86,5 % del día 30/07/2021
  • 52 - 86,5 % del día 29/07/2021
  • 53 - 86,5 % del día 28/07/2021
  • 54 - 86,5 % del día 27/07/2021
  • 55 - 86,5 % del día 26/07/2021
  • 56 - 86,5 % del día 25/07/2021
  • 57 - 84,6 % del día 24/07/2021
  • 58 - 86,5 % del día 23/07/2021
  • 59 - 86,5 % del día 22/07/2021
  • 60 - 86,5 % del día 21/07/2021

||Volver al inicio de la página||


Humedad mínima

  • 1 - 32,1 % del día 18/09/2021
  • 2 - 33,9 % del día 17/09/2021
  • 3 - 26 % del día 16/09/2021
  • 4 - 25,6 % del día 15/09/2021
  • 5 - 28 % del día 14/09/2021
  • 6 - 41,2 % del día 13/09/2021
  • 7 - 30,2 % del día 12/09/2021
  • 8 - 24,5 % del día 11/09/2021
  • 9 - 20,4 % del día 10/09/2021
  • 10 - 22 % del día 09/09/2021
  • 11 - 30,9 % del día 08/09/2021
  • 12 - 33,7 % del día 07/09/2021
  • 13 - 28,4 % del día 06/09/2021
  • 14 - 34,9 % del día 05/09/2021
  • 15 - 40,1 % del día 04/09/2021
  • 16 - 37,6 % del día 03/09/2021
  • 17 - 48,7 % del día 02/09/2021
  • 18 - 52,2 % del día 01/09/2021
  • 19 - 45,5 % del día 31/08/2021
  • 20 - 38 % del día 30/08/2021
  • 21 - 34,2 % del día 29/08/2021
  • 22 - 19,4 % del día 28/08/2021
  • 23 - 18 % del día 27/08/2021
  • 24 - 31,4 % del día 26/08/2021
  • 25 - 33,7 % del día 25/08/2021
  • 26 - 42,8 % del día 24/08/2021
  • 27 - 28,7 % del día 23/08/2021
  • 28 - 23,3 % del día 22/08/2021
  • 29 - 31,1 % del día 21/08/2021
  • 30 - 40,8 % del día 20/08/2021
  • 31 - 42,6 % del día 19/08/2021
  • 32 - 40,6 % del día 18/08/2021
  • 33 - 42,5 % del día 17/08/2021
  • 34 - 26,7 % del día 16/08/2021
  • 35 - 7,9 % del día 15/08/2021
  • 36 - 23,1 % del día 14/08/2021
  • 37 - 29,5 % del día 13/08/2021
  • 38 - 23,5 % del día 12/08/2021
  • 39 - 32,6 % del día 11/08/2021
  • 40 - 37,1 % del día 10/08/2021
  • 41 - 44,9 % del día 09/08/2021
  • 42 - 47,4 % del día 08/08/2021
  • 43 - 19,4 % del día 07/08/2021
  • 44 - 14,6 % del día 06/08/2021
  • 45 - 33,3 % del día 05/08/2021
  • 46 - 19,2 % del día 04/08/2021
  • 47 - 23,8 % del día 03/08/2021
  • 48 - 36,4 % del día 02/08/2021
  • 49 - 16,2 % del día 01/08/2021
  • 50 - 12,7 % del día 31/07/2021
  • 51 - 19,7 % del día 30/07/2021
  • 52 - 40,6 % del día 29/07/2021
  • 53 - 40,4 % del día 28/07/2021
  • 54 - 35,7 % del día 27/07/2021
  • 55 - 33,5 % del día 26/07/2021
  • 56 - 14,4 % del día 25/07/2021
  • 57 - 16,5 % del día 24/07/2021
  • 58 - 22,3 % del día 23/07/2021
  • 59 - 18,7 % del día 22/07/2021
  • 60 - 24,5 % del día 21/07/2021

 

|| Temperatura Ambiente|| Velocidad y dirección del viento|| Precipitación|| Radiación Solar Global y PAR|| Temperatura y humedad del suelo|| Presión atmosférica|| Más información|| Volver a la página principal|| Volver al inicio de la página||


Estación Meteorológica de la Universidad de Murcia
http://estacion.um.es/
Informacion actualizada a: 20/09/2021 a las 22:31:00